Showing default

OPS 9442 (DSCS 2-12), 11145

Orbit data source: Space-Track

OPS 9442 (DSCS 2-12), 11145 is an American payload satellite in GEO that was launched on Thu, 14 Dec 1978 UTC via a TITAN IIIC launch vehicle from the Air Force Eastern Test Range (AFETR). Payload-class satellites include a variety of spacecraft equipped with specific instruments for various scientific and technological missions. These include communications satellites like Starlink; space stations such as the ISS; scientific satellites like the Hubble; Earth observation satellites from companies like Planet Labs, Umbra, and HawkEye 360; GPS; miniature CubeSats for education and research; and military/defense satellites.

Not visible in the next 10 days
Identifier
11145, 1978-113B
Orbit
GEO
Country
Flag of USUS
Related business
Manufacturer
TRW
Mission
Non-operational spacecraft
Bus & Motor
DSCS II, AOCS
Mass
~610 kg wet, ~550 kg dry
Launch date (UTC)
1978-12-14 (48 years ago)
Launch vehicle
TITAN IIIC
Launch site
Air Force Eastern Test Range (AFETR)
Object type
Payload
Rocket body
Debris
Shape & HBR
Unknown
Radar Cross Section
Large (>1 m²)

Expand to show TLE details & history
Last TLE update: 2 days ago

TLE from 2 days ago
0 OPS 9442 (DSCS 2-12)
1 11145U 78113B   26171.20685405 -.00000231  00000-0  00000+0 0  9995
2 11145   8.2437 303.1096 0004806 182.5744   2.4949  0.98442983117092
Epoch: 2026-06-20T04:57Z
TLE epoch observation values (Epoch: 2026-06-20T04:57:52.189Z)
Latitude
-0.71781°
Longitude
145.23579°
Altitude
36,286.295 km
Speed
3.057 km/s
True Right ascension
08h 32m 30s
True Declination
0° 43' 02"
Sunlit
Object was in daylight at epoch
Visualization orbit readout
Latitude
Unknown
Longitude
Unknown
Altitude
Unknown
Speed
Unknown
Apparent Right ascension
Unknown
Apparent Declination
Unknown
Sunlit
N/A
Visualization observer readout
Local Sidereal Time
23:27:18
Azimuth
Unknown
Elevation
Unknown
Doppler factor
Unknown
Orbital elements
Apogee altitude
36,328.736 km
Perigee altitude
36,287.706 km
Semi-major axis
42,686.358 km
Eccentricity
0.00048
Inclination
8.2437°
RAAN
303.1096°
Arg. of periapsis
182.5744°
True anomaly
2.4973°
Mean anomaly
2.4949°
Eccentric anomaly
2.4961°
Mean motion
0.2461 °/min
Orbital period
1,462.83 mins
BSTAR
0
Loading maneuver chart data...
Computing Atmospheric mass density...
Loading historical data...
Loading historical data...
Loading historical data...
Loading historical data...
Loading historical data...
Loading historical data...
Loading historical data...

Documentation

Showing up to 5 results
|